• In Deutschland
  • Länderverzeichnis
  • Für 7 Tage
  • Wassertemperatur
  • Satellitenkarten
  • Wetterkarte
  • Widgets
  • user-avatar
    Anmelden

    Stündliche Wetter Bagdarin

    Heute, 23 April, Montag

    Zeit Temperatur Niederschläge Wind Luftdruck Luftfeuchtigkeit
    00:00 +4°C° 0 mm 1 m/S 683 mmHg 62%
    01:00 +4°C° 0 mm 1 m/S 683 mmHg 64%
    02:00 +4°C° 0 mm 1 m/S 683 mmHg 66%
    03:00 +3°C° 0 mm 1 m/S 683 mmHg 68%
    04:00 +3°C° 0 mm 1 m/S 683 mmHg 70%
    05:00 +2°C° 0 mm 1 m/S 683 mmHg 72%
    06:00 +3°C° 0 mm 2 m/S 683 mmHg 67%
    07:00 +5°C° 0 mm 2 m/S 683 mmHg 61%
    08:00 +7°C° 0 mm 2 m/S 683 mmHg 56%
    09:00 +9°C° 0 mm 3 m/S 682 mmHg 51%
    10:00 +11°C° 0 mm 4 m/S 682 mmHg 46%
    11:00 +12°C° 0 mm 5 m/S 682 mmHg 42%
    12:00 +13°C° 0 mm 5 m/S 682 mmHg 39%
    13:00 +13°C° 0 mm 5 m/S 681 mmHg 35%
    14:00 +14°C° 0 mm 5 m/S 681 mmHg 32%
    15:00 +14°C° 0 mm 5 m/S 681 mmHg 32%
    16:00 +14°C° 0 mm 5 m/S 681 mmHg 33%
    17:00 +14°C° 0 mm 4 m/S 681 mmHg 33%
    18:00 +12°C° 0 mm 4 m/S 681 mmHg 38%
    19:00 +10°C° 0 mm 3 m/S 681 mmHg 44%
    20:00 +8°C° 0 mm 2 m/S 681 mmHg 50%
    21:00 +7°C° 0 mm 2 m/S 681 mmHg 53%
    22:00 +6°C° 0 mm 2 m/S 681 mmHg 56%
    23:00 +5°C° 0 mm 2 m/S 681 mmHg 59%

    Morgen, 24 April, Dienstag

    Zeit Temperatur Niederschläge Wind Luftdruck Luftfeuchtigkeit
    00:00 +5°C° 0 mm 2 m/S 681 mmHg 60%
    01:00 +5°C° 0 mm 2 m/S 681 mmHg 62%
    02:00 +4°C° 0 mm 2 m/S 681 mmHg 64%
    03:00 +4°C° 0 mm 2 m/S 680 mmHg 66%
    04:00 +4°C° 0 mm 2 m/S 680 mmHg 67%
    05:00 +3°C° 0 mm 2 m/S 680 mmHg 69%
    06:00 +5°C° 0 mm 2 m/S 680 mmHg 64%
    07:00 +7°C° 0 mm 2 m/S 680 mmHg 59%
    08:00 +9°C° 0 mm 2 m/S 680 mmHg 54%
    09:00 +11°C° 0 mm 3 m/S 679 mmHg 49%
    10:00 +13°C° 0 mm 4 m/S 679 mmHg 44%
    11:00 +15°C° 0 mm 5 m/S 679 mmHg 39%
    12:00 +16°C° 0 mm 5 m/S 678 mmHg 35%
    13:00 +17°C° 0 mm 6 m/S 677 mmHg 32%
    14:00 +18°C° 0 mm 7 m/S 677 mmHg 28%
    15:00 +19°C° 0 mm 6 m/S 676 mmHg 30%
    16:00 +17°C° 0 mm 6 m/S 675 mmHg 32%
    17:00 +17°C° 0 mm 5 m/S 675 mmHg 34%
    18:00 +15°C° 0 mm 4 m/S 674 mmHg 40%
    19:00 +13°C° 0 mm 3 m/S 674 mmHg 46%
    20:00 +12°C° 0 mm 2 m/S 674 mmHg 52%
    21:00 +10°C° 0 mm 2 m/S 674 mmHg 54%
    22:00 +10°C° 0 mm 1 m/S 674 mmHg 56%
    23:00 +10°C° 0 mm 1 m/S 674 mmHg 58%

    übermorgen, 25 April, Mittwoch

    Zeit Temperatur Niederschläge Wind Luftdruck Luftfeuchtigkeit
    00:00 +9°C° 0 mm 1 m/S 674 mmHg 61%
    01:00 +8°C° 0 mm 2 m/S 674 mmHg 64%
    02:00 +7°C° 0 mm 2 m/S 675 mmHg 67%
    03:00 +6°C° 0,1 mm 2 m/S 675 mmHg 72%
    04:00 +5°C° 0,1 mm 2 m/S 676 mmHg 76%
    05:00 +3°C° 0,1 mm 3 m/S 676 mmHg 81%
    06:00 +3°C° 0 mm 3 m/S 677 mmHg 75%
    07:00 +3°C° 0 mm 3 m/S 678 mmHg 69%
    08:00 +3°C° 0 mm 3 m/S 679 mmHg 63%
    09:00 +4°C° 0 mm 3 m/S 679 mmHg 54%
    10:00 +7°C° 0 mm 3 m/S 679 mmHg 45%
    11:00 +8°C° 0 mm 3 m/S 680 mmHg 36%
    12:00 +9°C° 0 mm 3 m/S 680 mmHg 32%
    13:00 +9°C° 0 mm 3 m/S 680 mmHg 27%
    14:00 +10°C° 0 mm 3 m/S 680 mmHg 22%
    15:00 +10°C° 0 mm 3 m/S 680 mmHg 22%
    16:00 +10°C° 0 mm 3 m/S 680 mmHg 22%
    17:00 +9°C° 0 mm 3 m/S 680 mmHg 22%
    18:00 +7°C° 0 mm 2 m/S 680 mmHg 27%
    19:00 +5°C° 0 mm 2 m/S 680 mmHg 31%
    20:00 +4°C° 0 mm 1 m/S 680 mmHg 36%
    21:00 +4°C° 0 mm 1 m/S 680 mmHg 37%
    22:00 +3°C° 0 mm 1 m/S 681 mmHg 39%
    23:00 +2°C° 0 mm 1 m/S 681 mmHg 40%

    26 April, Donnerstag

    Zeit Temperatur Niederschläge Wind Luftdruck Luftfeuchtigkeit
    00:00 +1°C° 0 mm 0 m/S 681 mmHg 40%
    01:00 0°C° 0 mm 0 m/S 681 mmHg 40%
    02:00 0°C° 0 mm 0 m/S 681 mmHg 41%
    03:00 0°C° 0 mm 0 m/S 681 mmHg 41%
    04:00 -1°C° 0 mm 0 m/S 680 mmHg 42%
    05:00 -1°C° 0 mm 0 m/S 680 mmHg 42%
    06:00 +1°C° 0 mm 0 m/S 681 mmHg 38%
    07:00 +4°C° 0 mm 1 m/S 681 mmHg 34%
    08:00 +6°C° 0 mm 1 m/S 681 mmHg 30%
    09:00 +8°C° 0 mm 1 m/S 681 mmHg 29%
    10:00 +9°C° 0 mm 2 m/S 680 mmHg 27%
    11:00 +12°C° 0 mm 2 m/S 680 mmHg 26%
    12:00 +12°C° 0 mm 3 m/S 679 mmHg 26%
    13:00 +13°C° 0 mm 3 m/S 679 mmHg 26%
    14:00 +14°C° 0 mm 4 m/S 678 mmHg 26%
    15:00 +14°C° 0 mm 4 m/S 678 mmHg 28%
    16:00 +14°C° 0 mm 4 m/S 678 mmHg 30%
    17:00 +15°C° 0 mm 4 m/S 678 mmHg 33%
    18:00 +13°C° 0 mm 3 m/S 677 mmHg 40%
    19:00 +11°C° 0 mm 3 m/S 677 mmHg 48%
    20:00 +9°C° 0 mm 2 m/S 677 mmHg 55%
    21:00 +8°C° 0 mm 2 m/S 677 mmHg 58%
    22:00 +8°C° 0 mm 2 m/S 677 mmHg 60%
    23:00 +8°C° 0 mm 1 m/S 677 mmHg 62%

    27 April, Freitag

    Zeit Temperatur Niederschläge Wind Luftdruck Luftfeuchtigkeit
    00:00 +8°C° 0 mm 1 m/S 677 mmHg 64%
    01:00 +7°C° 0 mm 1 m/S 677 mmHg 66%
    02:00 +7°C° 0 mm 1 m/S 677 mmHg 68%
    03:00 +6°C° 0 mm 1 m/S 676 mmHg 69%
    04:00 +6°C° 0 mm 1 m/S 676 mmHg 70%
    05:00 +5°C° 0 mm 1 m/S 676 mmHg 72%
    06:00 +7°C° 0 mm 1 m/S 676 mmHg 64%
    07:00 +9°C° 0 mm 1 m/S 676 mmHg 57%
    08:00 +10°C° 0 mm 2 m/S 676 mmHg 49%
    09:00 +11°C° 0 mm 3 m/S 676 mmHg 43%
    10:00 +13°C° 0 mm 4 m/S 676 mmHg 38%
    11:00 +14°C° 0 mm 6 m/S 676 mmHg 32%
    12:00 +14°C° 0 mm 6 m/S 676 mmHg 30%
    13:00 +14°C° 0 mm 7 m/S 676 mmHg 29%
    14:00 +13°C° 0 mm 8 m/S 676 mmHg 27%
    15:00 +12°C° 0 mm 8 m/S 676 mmHg 27%
    16:00 +11°C° 0 mm 8 m/S 677 mmHg 27%
    17:00 +10°C° 0 mm 8 m/S 677 mmHg 27%
    18:00 +8°C° 0 mm 7 m/S 677 mmHg 32%
    19:00 +6°C° 0 mm 5 m/S 678 mmHg 37%
    20:00 +4°C° 0 mm 4 m/S 678 mmHg 41%
    21:00 +3°C° 0 mm 4 m/S 679 mmHg 46%
    22:00 +2°C° 0 mm 3 m/S 679 mmHg 50%
    23:00 +2°C° 0 mm 2 m/S 679 mmHg 54%

    28 April, Samstag

    Zeit Temperatur Niederschläge Wind Luftdruck Luftfeuchtigkeit
    00:00 +2°C° 0 mm 2 m/S 679 mmHg 57%
    01:00 +1°C° 0 mm 2 m/S 679 mmHg 60%
    02:00 +2°C° 0 mm 1 m/S 679 mmHg 62%
    03:00 +1°C° 0 mm 1 m/S 680 mmHg 64%
    04:00 +1°C° 0 mm 1 m/S 680 mmHg 66%
    05:00 0°C° 0 mm 1 m/S 680 mmHg 68%
    06:00 +2°C° 0 mm 1 m/S 680 mmHg 59%
    07:00 +3°C° 0 mm 2 m/S 680 mmHg 50%
    08:00 +4°C° 0 mm 2 m/S 680 mmHg 41%
    09:00 +6°C° 0 mm 2 m/S 680 mmHg 37%
    10:00 +7°C° 0 mm 2 m/S 680 mmHg 33%
    11:00 +8°C° 0 mm 2 m/S 680 mmHg 29%
    12:00 +8°C° 0 mm 3 m/S 679 mmHg 28%
    13:00 +9°C° 0 mm 3 m/S 679 mmHg 27%
    14:00 +9°C° 0 mm 3 m/S 678 mmHg 26%
    15:00 +9°C° 0 mm 3 m/S 678 mmHg 27%
    16:00 +9°C° 0 mm 3 m/S 677 mmHg 28%
    17:00 +8°C° 0 mm 2 m/S 677 mmHg 29%
    18:00 +7°C° 0 mm 2 m/S 677 mmHg 33%
    19:00 +6°C° 0 mm 2 m/S 677 mmHg 37%
    20:00 +5°C° 0 mm 2 m/S 677 mmHg 42%
    21:00 +4°C° 0 mm 2 m/S 677 mmHg 44%
    22:00 +3°C° 0 mm 2 m/S 677 mmHg 46%
    23:00 +3°C° 0 mm 2 m/S 677 mmHg 48%
    Mehr zeigen